Methuen, Massachusetts, United States (01844)
Lat: 42.73N, Lon: 71.19W
Wx Zone: MAZ006
Local Info
Past Weather Observations for Wednesday, September 17, 2014

NOTE: This archive is for the closest National Weather Service station to Methuen. Information may differ from the station used for current weather conditions.

Click here for Long-term Archive

Time Weather Temperature Dewpoint Humidity Pressure Winds Precip Visibility
23:54
Clear
50°F / 10°C 46°F / 8°C 88% 29.98 in
(1015 mb)
SSE 3.5 mph
(SSE 6 kph)
- 10SM
22:54
Clear
48°F / 9°C 46°F / 8°C 94% 29.98 in
(1015 mb)
SSE 3.5 mph
(SSE 6 kph)
- 10SM
21:54
Clear
54°F / 12°C 48°F / 9°C 82% 29.98 in
(1015 mb)
Calm - 10SM
20:54
Clear
54°F / 12°C 50°F / 10°C 88% 29.98 in
(1015 mb)
Calm - 10SM
19:54
Clear
57°F / 14°C 52°F / 11°C 82% 30.01 in
(1016 mb)
Calm - 10SM
18:54
Clear
59°F / 15°C 50°F / 10°C 72% 30.01 in
(1016 mb)
SE 5.8 mph
(SE 9 kph)
- 10SM
17:54
Clear
63°F / 17°C 52°F / 11°C 68% 29.98 in
(1015 mb)
SE 3.5 mph
(SE 6 kph)
- 10SM
16:54
Mostly Cloudy
66°F / 19°C 46°F / 8°C 49% 29.98 in
(1015 mb)
SSW 5.8 mph
(SSW 9 kph)
- 10SM
15:54
Mostly Cloudy
68°F / 20°C 45°F / 7°C 43% 29.95 in
(1014 mb)
W 6.9 mph
(W 11 kph)
- 10SM
14:54
Partly Cloudy
70°F / 21°C 45°F / 7°C 40% 29.98 in
(1015 mb)
Calm - 10SM
13:55
Partly Cloudy
70°F / 21°C 46°F / 8°C 43% 29.98 in
(1015 mb)
Variable 3.5 mph
(Variable 6 kph)
- 10SM
13:54
Partly Cloudy
70°F / 21°C 46°F / 8°C 43% 29.98 in
(1015 mb)
Variable 5.8 mph
(Variable 9 kph)
- 10SM
13:03
Partly Cloudy
68°F / 20°C 45°F / 7°C 43% 29.98 in
(1015 mb)
SW 5.8 mph
(SW 9 kph)
- 10SM
12:54
Clear
68°F / 20°C 45°F / 7°C 43% 29.98 in
(1015 mb)
SSW 9.2 mph
(SSW 15 kph)
- 10SM
11:54
Partly Cloudy
68°F / 20°C 46°F / 8°C 46% 30.01 in
(1016 mb)
SSW 8.1 mph
(SSW 13 kph)
- 10SM
10:54
Partly Cloudy
66°F / 19°C 46°F / 8°C 49% 30.04 in
(1017 mb)
SSW 4.6 mph
(SSW 7 kph)
- 10SM
09:54
Clear
63°F / 17°C 48°F / 9°C 59% 30.04 in
(1017 mb)
Calm - 10SM
08:54
Clear
61°F / 16°C 52°F / 11°C 72% 30.04 in
(1017 mb)
NW 4.6 mph
(NW 7 kph)
- 10SM
07:54
Clear
55°F / 13°C 50°F / 10°C 82% 30.04 in
(1017 mb)
NW 3.5 mph
(NW 6 kph)
- 10SM
06:54
Clear
52°F / 11°C 48°F / 9°C 88% 30.04 in
(1017 mb)
SSW 3.5 mph
(SSW 6 kph)
- 10SM
05:54
Clear
46°F / 8°C 46°F / 8°C 100% 30.04 in
(1017 mb)
Calm - 9SM
04:54
Clear
48°F / 9°C 46°F / 8°C 94% 30.04 in
(1017 mb)
SW 3.5 mph
(SW 6 kph)
- 10SM
03:54
Partly Cloudy
Fog And Mist
48°F / 9°C 46°F / 8°C 94% 30.01 in
(1016 mb)
SSE 3.5 mph
(SSE 6 kph)
- 6SM
03:32
Partly Cloudy
Fog And Mist
48°F / 9°C 46°F / 8°C 94% 30.01 in
(1016 mb)
Calm - 3SM
03:29
Partly Cloudy
Fog And Mist
48°F / 9°C 46°F / 8°C 94% 30.01 in
(1016 mb)
SSE 3.5 mph
(SSE 6 kph)
- 1 1/4SM
03:25
Obscured
Fog
48°F / 9°C 46°F / 8°C 94% 30.01 in
(1016 mb)
Calm - 1/2SM
03:16
Clear
Fog
48°F / 9°C 48°F / 9°C 100% 30.01 in
(1016 mb)
Calm - 1/2SM
03:12
Clear
Fog And Mist
48°F / 9°C 48°F / 9°C 100% 30.01 in
(1016 mb)
Calm - 1 1/2SM
02:54
Clear
Fog And Mist
48°F / 9°C 46°F / 8°C 94% 30.01 in
(1016 mb)
Calm - 5SM
01:54
Clear
52°F / 11°C 50°F / 10°C 94% 30.01 in
(1016 mb)
SW 3.5 mph
(SW 6 kph)
- 9SM
00:54
Clear
52°F / 11°C 52°F / 11°C 100% 30.01 in
(1016 mb)
SSE 4.6 mph
(SSE 7 kph)
- 8SM
Time Weather Temperature Dewpoint Humidity Pressure Winds Precip Visibility


Weather for websites

WeatherForYou.com, LLC is not responsible for any damages or problems caused by this service. Current weather conditions are obtained from the closest station including government and personal stations which may have varying degrees of accuracy. Weather forecasts are derived from the NOAA NDFD. Like all things, this site belongs to Jesus Christ... He just trusts me to maintain it. If you have any questions or comments email webmaster@weatherforyou.com

Copyright © 2014, WeatherForYou.com LLC. All rights reserved.